User: anonymous   Login
Location: Cherry Springs State Park
(41.6616°N, 77.8240°W)
Time: 05:30:03
(UTC-04:00)
Language:

Cosmos 1437 - Orbit

View from above orbital plane
View from above orbital plane
View from above satellite
View from above satellite

Ground track
Ground track

The orbit data is extracted from the following two-line orbital elements,

1 13770U 83003A   14298.80376894  .00015107  00000-0  47028-3 0  6884
2 13770 081.1660 240.3856 0011563 040.2365 347.2633 15.33107578737573
Epoch (UTC): 25 October 2014 19:17:25
Eccentricity: 0.0011563
inclination: 81.1660°
perigee height: 458 km
apogee height: 474 km
right ascension of ascending node: 240.3856°
argument of perigee: 40.2365°
revolutions per day: 15.33107578
mean anomaly at epoch: 347.2633°
orbit number at epoch: 73757

The dashed part of the orbit path shows where the satellite is in the earth's shadow,  

DLR